Friday Harbor, WA
on Monday, January 14, 2013

Monday
Previous Day Next Day
Daily Summary
 ActualAverageRecord
Temperature
Mean Temperature °F °F  
Max Temperature 37°F 43°F 55°F (2011)
Min Temperature 35°F 36°F 19°F (2007)
Degree Days
Heating Degree Days 29    
Moisture
Dew Point 32°F   
Average Humidity 87    
Maximum Humidity 93    
Minimum Humidity 75    
Precipitation
Precipitation 0.00 in in in ()
Wind
Wind Speed 5 mph   
Max Wind Speed 9 mph   
Max Gust Speed mph   
Visibility 10 miles   
Events     
Averages and records for this station are not official NWS values.
Key: T is trace of precipitation, MM is missing value
Source: NWS Daily Summary
Seasonal Weather Averages
Time(PST)TemperatureDew PointHumidity Pressure Visibility Wind DirectionWind SpeedGust SpeedPrecipitationEvents Conditions
12:11 AM 35.6°F 28.4°F 75% 30.48 in 10.0 miles ESE 6.9 mph - N/A   Overcast
12:53 AM 36.0°F 30.0°F 79% 30.49 in 10.0 miles ESE 4.6 mph - N/A   Overcast
1:53 AM 36.0°F 30.0°F 79% 30.49 in 10.0 miles NE 3.5 mph - N/A   Overcast
2:53 AM 36.0°F 30.0°F 79% 30.49 in 10.0 miles ESE 5.8 mph - N/A   Overcast
3:53 AM 36.0°F 30.9°F 82% 30.49 in 10.0 miles ESE 5.8 mph - N/A   Overcast
4:46 AM 35.6°F 30.2°F 81% 30.48 in 10.0 miles ESE 5.8 mph - N/A   Overcast
4:53 AM 36.0°F 30.9°F 82% 30.48 in 10.0 miles ESE 6.9 mph - N/A   Overcast
5:53 AM 36.0°F 30.9°F 82% 30.48 in 10.0 miles SE 5.8 mph - N/A   Overcast
6:15 AM 35.6°F 32.0°F 87% 30.47 in 10.0 miles SSE 3.5 mph - N/A   Overcast
6:53 AM 36.0°F 32.0°F 86% 30.48 in 10.0 miles ESE 9.2 mph - N/A   Overcast
7:53 AM 36.0°F 33.1°F 89% 30.49 in 10.0 miles SE 5.8 mph - N/A   Overcast
8:39 AM 35.6°F 33.8°F 93% 30.49 in 7.0 miles ESE 6.9 mph - N/A   Overcast
8:53 AM 36.0°F 33.1°F 89% 30.50 in 9.0 miles ESE 5.8 mph - N/A   Overcast
9:31 AM 35.6°F 33.8°F 93% 30.49 in 10.0 miles ESE 5.8 mph - N/A   Overcast
9:53 AM 36.0°F 33.1°F 89% 30.50 in 10.0 miles ESE 6.9 mph - N/A   Overcast
10:53 AM 36.0°F 32.0°F 86% 30.51 in 10.0 miles ESE 8.1 mph - N/A   Overcast
11:53 AM 37.0°F 32.0°F 82% 30.51 in 10.0 miles East 8.1 mph - N/A   Overcast
12:53 PM 37.0°F 32.0°F 82% 30.50 in 10.0 miles ESE 8.1 mph - N/A   Overcast
1:53 PM 37.0°F 33.1°F 86% 30.51 in 10.0 miles SE 6.9 mph - N/A   Overcast
2:53 PM 37.0°F 33.1°F 86% 30.52 in 10.0 miles SE 8.1 mph - 0.00 in   Overcast
3:53 PM 37.0°F 33.1°F 86% 30.51 in 9.0 miles ESE 6.9 mph - 0.00 in   Overcast
4:53 PM 36.0°F 33.1°F 89% 30.53 in 10.0 miles East 5.8 mph - N/A   Overcast
5:53 PM 36.0°F 33.1°F 89% 30.54 in 9.0 miles ESE 5.8 mph - 0.00 in   Overcast
6:53 PM 36.0°F 33.1°F 89% 30.55 in 10.0 miles ESE 4.6 mph - 0.00 in   Overcast
7:53 PM 36.0°F 33.1°F 89% 30.56 in 10.0 miles Calm Calm - N/A   Overcast
8:24 PM 35.6°F 33.8°F 93% 30.56 in 10.0 miles Calm Calm - N/A   Overcast
8:53 PM 36.0°F 33.1°F 89% 30.57 in 10.0 miles Calm Calm - N/A   Overcast
9:44 PM 35.6°F 33.8°F 93% 30.57 in 10.0 miles Calm Calm - N/A   Overcast
9:53 PM 36.0°F 33.1°F 89% 30.58 in 10.0 miles Calm Calm - N/A   Overcast
10:20 PM 35.6°F 33.8°F 93% 30.57 in 10.0 miles Calm Calm - N/A   Overcast
10:53 PM 36.0°F 33.1°F 89% 30.58 in 9.0 miles Calm Calm - N/A   Overcast
11:24 PM 35.6°F 33.8°F 93% 30.58 in 8.0 miles Calm Calm - N/A   Overcast
11:53 PM 36.0°F 34.0°F 93% 30.60 in 7.0 miles Calm Calm - N/A   Overcast
Moon Phase
Jan. 14 Jan. 18 Jan. 26 Feb. 03 Feb. 10
Sunrise:07:59 AM (PST) Moon Rise:09:15 AM (PST)1/14
Sunset:04:43 PM (PST) Moon Set:08:58 PM (PST)1/14

Copyright © 2014 The Weather Underground, Inc.